Location: Waco, TX
(31.5480°N, 97.1670°W)
Time: 19:49:35
(UTC-05:00)

ISS - Pass Details

Date: 11 August 2018
Orbit: 402 x 409 km, 51.6° (Epoch: 21 August)

Event Time Altitude Azimuth Distance (km) Brightness Sun altitude
Rises 11:49:49 0° 191° (S) 2,295 0.1 61.2°
Reaches altitude 10° 11:52:22 10° 170° (S) 1,441 -0.6 61.6°
Maximum altitude 11:54:33 17° 127° (SE) 1,102 -0.8 62.0°
Drops below altitude 10° 11:56:44 10° 85° (E) 1,446 -0.5 62.4°
Sets 11:59:17 0° 64° (ENE) 2,309 0.2 62.9°
